Location: Buckland
(65.9785°N, 161.1281°W)
Time: 23:02:28
(UTC+00:00)

Transit 4A - Pass Details

Date: 29 November 2020
Orbit: 864 x 980 km, 66.8° (Epoch: 20 January)

Event Time Altitude Azimuth Distance (km) Brightness Sun altitude
Rises 18:15:18 0° 179° (S) 3,654 11.5 -10.0°
Reaches altitude 10° 18:18:17 10° 167° (SSE) 2,722 11.0 -9.7°
Maximum altitude 18:23:16 25° 115° (ESE) 1,883 10.6 -9.3°
Drops below altitude 10° 18:28:17 10° 64° (ENE) 2,744 10.8 -8.9°
Sets 18:31:18 0° 52° (NE) 3,691 11.3 -8.6°
